Location: Austin
(30.3000°N, 97.7500°W)
Time: 04:20:09
(UTC-05:00)

ADEOS - Pass Details

Date: 01 October 2024
Orbit: 790 x 793 km, 98.9° (Epoch: 06 October)

Event Time Altitude Azimuth Distance (km) Brightness Sun altitude
Exits shadow 20:26:59 17° 136° (SE) 1,908 5.1 -16.2°
Maximum altitude 20:30:36 42° 72° (ENE) 1,117 3.9 -17.0°
Drops below altitude 10° 20:35:29 10° 3° (N) 2,358 6.1 -18.1°
Sets 20:37:54 0° 357° (N) 3,290 6.9 -18.6°
